[Iaude] MPEC X243: 2023 XW10 [a=1.84,e=0.73,i=0.4,H=25.5]

mpec at marsden.cfa.harvard.edu mpec at marsden.cfa.harvard.edu
Tue Dec 12 07:55:46 EST 2023


M.P.E.C. 2023-X243                            Issued 2023 December 12, 12:54 UT

     The Minor Planet Electronic Circulars contain information on unusual
         minor planets, routine data on comets and natural satellites,
         and occasional editorial announcements.  They are published
    on behalf of Division F of the International Astronomical Union by the
          Minor Planet Center, Smithsonian Astrophysical Observatory,
                          Cambridge, MA 02138, U.S.A.
			  
             Prepared using the Tamkin Foundation Computer Network

                              MPC at CFA.HARVARD.EDU
            URL https://www.minorplanetcenter.net/    ISSN 1523-6714

                                   2023 XW10                                    


Observations:
     K23X10W 1C2023 12 06.13936 23 56 17.39 +16 47 44.0          19.1 GVEX243703
     K23X10W 1C2023 12 06.14391 23 56 53.00 +16 50 13.5          19.1 GVEX243703
     K23X10W* C2023 12 09.42878802 58 14.439+23 11 38.56         20.42wXEX243F52
     K23X10W  C2023 12 09.44176502 58 28.198+23 11 35.66         20.63wXEX243F52
     K23X10W  C2023 12 09.45478902 58 41.962+23 11 32.42         20.55wXEX243F52
     K23X10W KC2023 12 09.86491803 05 44.345+23 09 43.56         20.4 GVEX243J95
     K23X10W KC2023 12 09.87254203 05 51.048+23 09 41.87         19.9 GVEX243J95
     K23X10W mC2023 12 10.10039003 09 15.570+23 09 25.45         20.72GVEX243I52
     K23X10W mC2023 12 10.10322703 09 17.759+23 09 24.41         21.31GVEX243I52
     K23X10W mC2023 12 10.10590203 09 20.016+23 09 24.95         20.83GVEX243I52
     K23X10W mC2023 12 10.10667803 09 20.617+23 09 25.09         20.92GVEX243I52
     K23X10W !C2023 12 10.25404 03 11 14.98 +23 08 55.1          21.1 RVEX243673
     K23X10W !C2023 12 10.26210 03 11 20.87 +23 08 52.0                VEX243673
     K23X10W KC2023 12 11.28165 03 22 34.80 +23 03 47.8          21.2 RVEX243691
     K23X10W KC2023 12 11.29499 03 22 41.71 +23 03 41.9          20.5 RVEX243691
     K23X10W KC2023 12 11.30831 03 22 48.56 +23 03 37.1          21.1 RVEX243691
     K23X10W KC2023 12 12.10492 03 29 24.27 +22 59 15.0          22.1 RVEX243291
     K23X10W KC2023 12 12.11293 03 29 27.52 +22 59 13.3          21.9 RVEX243291
     K23X10W KC2023 12 12.11741503 29 27.18 +22 59 07.6          21.7 GVEX243H21
     K23X10W KC2023 12 12.13551303 29 34.40 +22 59 02.6          21.4 GVEX243H21
     K23X10W KB2023 12 12.25418 03 30 21.52 +22 58 24.9          20.4 GVEX243734
     K23X10W KB2023 12 12.27195 03 30 28.43 +22 58 17.9          20.5 GVEX243734
     K23X10W KB2023 12 12.28083 03 30 31.87 +22 58 14.4          21.0 GVEX243734

Observer details:
291 LPL/Spacewatch II.  Observer T. H. Bressi.  1.8-m f/2.7 reflector + CCD.
673 Table Mountain Observatory, Wrightwood.  Observer J. Pittichova.  1.0-m
    f/15 reflector + CCD.
691 Steward Observatory, Kitt Peak-Spacewatch.  Observer M. T. Read.  0.9-m
    f/3 reflector + CCD.
703 Catalina Sky Survey.  Observer G. J. Leonard.  Measurers B. Gray, D.
    Rankin, F. C. Shelly.  0.68-m Schmidt + 10K CCD.
734 Farpoint Observatory, Eskridge.  Observers D. Cromer, G. Hug, D. Goodin,
    R. Valentine.  Measurer D. Cromer.  0.69-m f/3.54 reflector + CMO.
F52 Pan-STARRS 2, Haleakala.  Observers J. Herman, T. Lowe, P. Minguez, A.
    Schultz, I. Smith.  Measurers K. Chambers, T. de Boer, J. Fairlamb, H.
    Gao, M. Huber, C.-C. Lin, E. Magnier, Y. Ramanjooloo, R. Wainscoat, R.
    Weryk.  1.8-m Ritchey-Chretien + CCD.
H21 Astronomical Research Observatory, Westfield.  Observer R. Holmes.
    Measurers T. Linder, R. Holmes, L. Horn.  0.76-m f/3.0 astrograph + CCD.
I52 Steward Observatory, Mt. Lemmon Station.  Observer G. J. Leonard.
    Measurers E. C. Beshore, D. Fay, J. B. Fazekas, D. C. Fuls, A. R. Gibbs,
    A. D. Grauer, H. Groeller, J. K. Hogan, R. A. Kowalski, S. M. Larson, G.
    J. Leonard, D. Rankin, R. L. Seaman, F. C. Shelly, K. W. Wierzchos.  1.0-m
    prime focus + CCD.
J95 Great Shefford.  Observer P. Birtwhistle.  0.41-m f/6.3 Schmidt-Cassegrain
    + CCD.

Orbital elements:
2023 XW10                                                Earth MOID = 0.0035 AU
Epoch 2023 Sept. 13.0 TT = JDT 2460200.5                Veres                   
M 345.17599              (2000.0)            P               Q                  
n   0.39553031     Peri.  311.60682     +0.87425773     +0.48545628             
a   1.8380171      Node    19.35118     -0.44324846     +0.80021779             
e   0.7331807      Incl.    0.40979     -0.19800055     +0.35211318             
P   2.49           H   25.52          G   0.15           U   8                  
Residuals in seconds of arc
231206 703 (2.4+  1.8+)   231210 I52 (1.1-  0.9-)   231212 291  0.1-  0.3-
231206 703  0.0   0.0     231210 I52  0.4+  0.3-    231212 291  0.2-  0.5-
231209 F52  0.2-  0.3-    231210 I52  0.1+  0.1-    231212 H21  0.1-  0.0
231209 F52  0.1-  0.3-    231210 673  0.6-  0.1+    231212 H21  0.1-  0.0
231209 F52  0.1-  0.2-    231210 673  2.2-  0.7-    231212 734  0.0   0.1+
231209 J95  0.2+  0.7+    231211 691  0.3-  0.2+    231212 734  0.6+  0.0
231209 J95  0.6-  0.1-    231211 691  0.1+  0.3-    231212 734  0.7+  0.0
231210 I52  0.2+  0.0     231211 691  0.1-  0.5+

Ephemeris:
2023 XW10                a,e,i = 1.84, 0.73, 0                   q = 0.4904
Date    TT    R. A. (2000) Decl.     Delta      r    Elong.  Phase     V
2023 11 12    16 25 05.9 -21 22 24   0.3509  0.6681    19.0   151.2    31.0
...
2023 11 27    16 54 08.3 -20 29 45   0.1198  0.8694    10.7   167.9
...
2023 12 05    21 01 12.2 +00 28 09   0.01935 0.9781    66.8   112.2    21.2
...
2023 12 11    03 19 52.9 +23 05 37   0.08031 1.0581   154.9    23.3    21.3
2023 12 12    03 28 33.7 +23 00 12   0.09407 1.0712   155.8    22.1    21.6
2023 12 13    03 35 04.5 +22 55 06   0.1080  1.0843   156.3    21.4    21.9
...
2023 12 19    03 55 06.6 +22 35 45   0.1932  1.1618   154.8    21.1    23.3
...
2023 12 27    04 06 45.9 +22 27 37   0.3118  1.2617   149.3    23.4    24.6
...
2024 01 11    04 21 28.1 +22 33 23   0.5513  1.4387   137.4    27.5    26.2

M. P. C. Staff               (C) Copyright 2023 MPC           M.P.E.C. 2023-X243





More information about the Iaude mailing list